TimeEST,TemperatureF,Dew PointF,Humidity,Sea Level PressureIn,VisibilityMPH,Wind Direction,Wind SpeedMPH,Gust SpeedMPH,PrecipitationIn,Events,Conditions,WindDirDegrees,DateUTC
12:53 AM,36.0,-9999,N/A,29.74,5.0,NNW,11.5,-,0.00,,Overcast,340,2013-02-14 05:53:00
1:53 AM,35.1,-9999,N/A,29.78,8.0,NW,8.1,-,0.00,,Overcast,320,2013-02-14 06:53:00
2:53 AM,35.1,-9999,N/A,29.82,7.0,NW,6.9,-,N/A,,Overcast,320,2013-02-14 07:53:00
3:53 AM,36.0,36.0,100,29.84,6.0,North,-9999.0,-,N/A,,Overcast,0,2013-02-14 08:53:00
4:53 AM,36.0,36.0,100,29.88,5.0,NW,4.6,-,N/A,,Overcast,320,2013-02-14 09:53:00
5:39 AM,35.6,35.6,100,29.90,4.0,North,-9999.0,-,N/A,,Overcast,0,2013-02-14 10:39:00
5:53 AM,35.1,35.1,100,29.90,4.0,WNW,4.6,-,N/A,,Mostly Cloudy,290,2013-02-14 10:53:00
6:01 AM,35.6,35.6,100,29.91,4.0,NW,5.8,-,N/A,,Overcast,310,2013-02-14 11:01:00
6:53 AM,35.1,35.1,100,29.94,3.0,WNW,4.6,-,N/A,,Overcast,300,2013-02-14 11:53:00
7:00 AM,35.6,35.6,100,29.94,2.5,NW,4.6,-,N/A,,Overcast,310,2013-02-14 12:00:00
7:53 AM,37.0,36.0,96,29.97,2.5,NW,8.1,-,N/A,,Overcast,320,2013-02-14 12:53:00
8:01 AM,37.4,35.6,93,29.97,2.5,NNW,9.2,-,N/A,,Overcast,330,2013-02-14 13:01:00
8:24 AM,37.4,35.6,93,29.98,3.0,NNW,8.1,-,N/A,,Overcast,330,2013-02-14 13:24:00
8:45 AM,37.4,35.6,93,29.98,5.0,NNW,8.1,-,N/A,,Overcast,330,2013-02-14 13:45:00
8:53 AM,37.0,35.1,93,29.98,5.0,NNW,8.1,-,N/A,,Overcast,330,2013-02-14 13:53:00
9:12 AM,39.2,35.6,87,29.99,5.0,NNW,9.2,-,N/A,,Mostly Cloudy,330,2013-02-14 14:12:00
9:25 AM,39.2,35.6,87,29.99,6.0,NNW,9.2,-,N/A,,Scattered Clouds,340,2013-02-14 14:25:00
9:35 AM,39.2,35.6,87,29.99,6.0,NW,9.2,-,N/A,,Mostly Cloudy,320,2013-02-14 14:35:00
9:43 AM,39.2,35.6,87,29.99,6.0,NNW,8.1,-,N/A,,Scattered Clouds,340,2013-02-14 14:43:00
9:53 AM,41.0,36.0,82,30.00,6.0,NNW,9.2,-,N/A,,Haze,330,2013-02-14 14:53:00
10:53 AM,42.1,35.1,76,30.02,8.0,North,-9999.0,-,N/A,,Mostly Cloudy,0,2013-02-14 15:53:00
11:53 AM,43.0,35.1,74,30.01,8.0,NNW,3.5,-,N/A,,Overcast,330,2013-02-14 16:53:00
12:53 PM,43.0,34.0,71,30.00,8.0,North,-9999.0,-,N/A,,Overcast,0,2013-02-14 17:53:00
1:53 PM,42.1,36.0,79,30.00,7.0,SE,6.9,-,N/A,,Mostly Cloudy,140,2013-02-14 18:53:00
2:04 PM,41.0,35.6,81,30.01,7.0,SE,6.9,-,N/A,,Mostly Cloudy,130,2013-02-14 19:04:00
2:53 PM,41.0,36.0,82,30.01,6.0,SE,6.9,-,N/A,,Haze,130,2013-02-14 19:53:00
3:53 PM,41.0,36.0,82,30.02,6.0,Variable,4.6,-,N/A,,Haze,0,2013-02-14 20:53:00
4:53 PM,39.9,36.0,86,30.01,6.0,Variable,3.5,-,N/A,,Clear,0,2013-02-14 21:53:00
5:53 PM,39.0,36.0,89,30.03,7.0,South,4.6,-,N/A,,Clear,190,2013-02-14 22:53:00
6:53 PM,39.0,36.0,89,30.04,7.0,Variable,3.5,-,N/A,,Clear,0,2013-02-14 23:53:00
7:53 PM,37.0,36.0,96,30.04,7.0,SW,3.5,-,N/A,,Clear,220,2013-02-15 00:53:00
8:53 PM,32.0,32.0,100,30.06,5.0,Calm,Calm,-,N/A,,Clear,0,2013-02-15 01:53:00
9:32 PM,30.2,30.2,100,30.06,2.5,Calm,Calm,-,N/A,,Clear,0,2013-02-15 02:32:00
9:53 PM,30.0,30.0,100,30.06,2.0,Calm,Calm,-,N/A,,Clear,0,2013-02-15 02:53:00
10:04 PM,30.2,30.2,100,30.06,1.8,Calm,Calm,-,N/A,,Clear,0,2013-02-15 03:04:00
10:18 PM,30.2,30.2,100,30.07,0.5,Calm,Calm,-,N/A,Fog,Light Freezing Fog,0,2013-02-15 03:18:00
10:36 PM,32.0,30.2,93,30.07,2.5,Calm,Calm,-,N/A,,Clear,0,2013-02-15 03:36:00
10:43 PM,32.0,32.0,100,30.07,4.0,SW,3.5,-,N/A,,Clear,220,2013-02-15 03:43:00
10:53 PM,30.0,30.0,100,30.07,4.0,SW,3.5,-,N/A,,Clear,230,2013-02-15 03:53:00
11:53 PM,37.0,36.0,96,30.07,8.0,SW,5.8,-,N/A,,Clear,230,2013-02-15 04:53:00